Time,TemperatureF,DewpointF,PressureIn,WindDirection,WindDirectionDegrees,WindSpeedMPH,WindSpeedGustMPH,Humidity,HourlyPrecipIn,Conditions,Clouds,dailyrainin,SolarRadiationWatts/m^2,SoftwareType,DateUTC
2013-05-26 00:11:00,58.0,31.0,-100.00,WNW,297,12.0,22.0,35,0.00,,,0.00,0.000000,,2013-05-26 07:11:00,
2013-05-26 00:21:00,58.0,31.0,-100.00,WNW,297,12.0,22.0,35,0.00,,,0.00,0.000000,,2013-05-26 07:21:00,
2013-05-26 00:31:00,58.0,31.0,-100.00,WNW,297,12.0,22.0,35,0.00,,,0.00,0.000000,,2013-05-26 07:31:00,
2013-05-26 00:42:00,58.0,31.0,-100.00,WNW,297,12.0,22.0,35,0.00,,,0.00,0.000000,,2013-05-26 07:42:00,
2013-05-26 01:11:00,56.0,29.0,-100.00,NW,304,11.0,17.0,36,0.00,,,0.00,0.000000,,2013-05-26 08:11:00,
2013-05-26 01:21:00,56.0,29.0,-100.00,NW,304,11.0,17.0,36,0.00,,,0.00,0.000000,,2013-05-26 08:21:00,
2013-05-26 01:32:00,56.0,29.0,-100.00,NW,304,11.0,17.0,36,0.00,,,0.00,0.000000,,2013-05-26 08:32:00,
2013-05-26 01:41:00,56.0,29.0,-100.00,NW,304,11.0,17.0,36,0.00,,,0.00,0.000000,,2013-05-26 08:41:00,
2013-05-26 02:11:00,54.0,26.0,-100.00,WNW,303,9.0,18.0,34,0.00,,,0.00,0.000000,,2013-05-26 09:11:00,
2013-05-26 02:21:00,54.0,26.0,-100.00,WNW,303,9.0,18.0,34,0.00,,,0.00,0.000000,,2013-05-26 09:21:00,
2013-05-26 02:33:00,54.0,26.0,-100.00,WNW,303,9.0,18.0,34,0.00,,,0.00,0.000000,,2013-05-26 09:33:00,
2013-05-26 02:42:00,54.0,26.0,-100.00,WNW,303,9.0,18.0,34,0.00,,,0.00,0.000000,,2013-05-26 09:42:00,
2013-05-26 03:12:00,52.0,26.0,-100.00,WNW,303,6.0,14.0,36,0.00,,,0.00,0.000000,,2013-05-26 10:12:00,
2013-05-26 03:22:00,52.0,26.0,-100.00,WNW,303,6.0,14.0,36,0.00,,,0.00,0.000000,,2013-05-26 10:22:00,
2013-05-26 03:32:00,52.0,26.0,-100.00,WNW,303,6.0,14.0,36,0.00,,,0.00,0.000000,,2013-05-26 10:32:00,
2013-05-26 03:42:00,52.0,26.0,-100.00,WNW,303,6.0,14.0,36,0.00,,,0.00,0.000000,,2013-05-26 10:42:00,
2013-05-26 04:11:00,45.0,24.0,-100.00,West,261,0.0,7.0,43,0.00,,,0.00,0.000000,,2013-05-26 11:11:00,
2013-05-26 04:22:00,45.0,24.0,-100.00,West,261,0.0,7.0,43,0.00,,,0.00,0.000000,,2013-05-26 11:22:00,
2013-05-26 04:32:00,45.0,24.0,-100.00,West,261,0.0,7.0,43,0.00,,,0.00,0.000000,,2013-05-26 11:32:00,
2013-05-26 04:42:00,45.0,24.0,-100.00,West,261,0.0,7.0,43,0.00,,,0.00,0.000000,,2013-05-26 11:42:00,
2013-05-26 05:11:00,42.0,24.0,-100.00,WSW,244,0.0,4.0,48,0.00,,,0.00,0.000000,,2013-05-26 12:11:00,
2013-05-26 05:21:00,42.0,24.0,-100.00,WSW,244,0.0,4.0,48,0.00,,,0.00,0.000000,,2013-05-26 12:21:00,
2013-05-26 05:32:00,42.0,24.0,-100.00,WSW,244,0.0,4.0,48,0.00,,,0.00,0.000000,,2013-05-26 12:32:00,
2013-05-26 05:41:00,42.0,24.0,-100.00,WSW,244,0.0,4.0,48,0.00,,,0.00,0.000000,,2013-05-26 12:41:00,
2013-05-26 06:11:00,39.0,22.0,-100.00,West,259,0.0,4.0,50,0.00,,,0.00,2.000000,,2013-05-26 13:11:00,
2013-05-26 06:21:00,39.0,22.0,-100.00,West,259,0.0,4.0,50,0.00,,,0.00,2.000000,,2013-05-26 13:21:00,
2013-05-26 06:32:00,39.0,22.0,-100.00,West,259,0.0,4.0,50,0.00,,,0.00,2.000000,,2013-05-26 13:32:00,
2013-05-26 06:42:00,39.0,22.0,-100.00,West,259,0.0,4.0,50,0.00,,,0.00,2.000000,,2013-05-26 13:42:00,
2013-05-26 07:11:00,50.0,26.0,-100.00,WNW,290,0.0,0.0,39,0.00,,,0.00,110.000000,,2013-05-26 14:11:00,
2013-05-26 07:21:00,50.0,26.0,-100.00,WNW,290,0.0,0.0,39,0.00,,,0.00,110.000000,,2013-05-26 14:21:00,
2013-05-26 07:32:00,50.0,26.0,-100.00,WNW,290,0.0,0.0,39,0.00,,,0.00,110.000000,,2013-05-26 14:32:00,
2013-05-26 07:41:00,50.0,26.0,-100.00,WNW,290,0.0,0.0,39,0.00,,,0.00,110.000000,,2013-05-26 14:41:00,
2013-05-26 08:12:00,61.0,29.0,-100.00,North,7,0.0,6.0,30,0.00,,,0.00,339.000000,,2013-05-26 15:12:00,
2013-05-26 08:22:00,61.0,29.0,-100.00,North,7,0.0,6.0,30,0.00,,,0.00,339.000000,,2013-05-26 15:22:00,
2013-05-26 08:43:00,61.0,29.0,-100.00,North,7,0.0,6.0,30,0.00,,,0.00,339.000000,,2013-05-26 15:43:00,
2013-05-26 09:12:00,63.0,29.0,-100.00,SSW,206,0.0,6.0,28,0.00,,,0.00,574.000000,,2013-05-26 16:12:00,
2013-05-26 09:23:00,63.0,29.0,-100.00,SSW,206,0.0,6.0,28,0.00,,,0.00,574.000000,,2013-05-26 16:23:00,
2013-05-26 09:33:00,63.0,29.0,-100.00,SSW,206,0.0,6.0,28,0.00,,,0.00,574.000000,,2013-05-26 16:33:00,
2013-05-26 09:42:00,63.0,29.0,-100.00,SSW,206,0.0,6.0,28,0.00,,,0.00,574.000000,,2013-05-26 16:42:00,
2013-05-26 10:11:00,67.0,30.0,-100.00,ENE,60,2.0,7.0,25,0.00,,,0.00,791.000000,,2013-05-26 17:11:00,
2013-05-26 10:22:00,67.0,30.0,-100.00,ENE,60,2.0,7.0,25,0.00,,,0.00,791.000000,,2013-05-26 17:22:00,
2013-05-26 10:32:00,67.0,30.0,-100.00,ENE,60,2.0,7.0,25,0.00,,,0.00,791.000000,,2013-05-26 17:32:00,
2013-05-26 10:42:00,67.0,30.0,-100.00,ENE,60,2.0,7.0,25,0.00,,,0.00,791.000000,,2013-05-26 17:42:00,
2013-05-26 11:12:00,69.0,30.0,-100.00,ENE,72,1.0,11.0,23,0.00,,,0.00,1024.000000,,2013-05-26 18:12:00,
2013-05-26 11:21:00,69.0,30.0,-100.00,ENE,72,1.0,11.0,23,0.00,,,0.00,1024.000000,,2013-05-26 18:21:00,
2013-05-26 11:31:00,69.0,30.0,-100.00,ENE,72,1.0,11.0,23,0.00,,,0.00,1024.000000,,2013-05-26 18:31:00,
2013-05-26 11:42:00,69.0,30.0,-100.00,ENE,72,1.0,11.0,23,0.00,,,0.00,1024.000000,,2013-05-26 18:42:00,
2013-05-26 12:11:00,72.0,30.0,-100.00,NNW,339,4.0,15.0,21,0.00,,,0.00,1155.000000,,2013-05-26 19:11:00,
2013-05-26 12:21:00,72.0,30.0,-100.00,NNW,339,4.0,15.0,21,0.00,,,0.00,1155.000000,,2013-05-26 19:21:00,
2013-05-26 12:32:00,72.0,30.0,-100.00,NNW,339,4.0,15.0,21,0.00,,,0.00,1155.000000,,2013-05-26 19:32:00,
2013-05-26 12:42:00,72.0,30.0,-100.00,NNW,339,4.0,15.0,21,0.00,,,0.00,1155.000000,,2013-05-26 19:42:00,
2013-05-26 13:11:00,73.0,30.0,-100.00,WSW,253,8.0,19.0,20,0.00,,,0.00,1210.000000,,2013-05-26 20:11:00,
2013-05-26 13:21:00,73.0,30.0,-100.00,WSW,253,8.0,19.0,20,0.00,,,0.00,1210.000000,,2013-05-26 20:21:00,
2013-05-26 13:32:00,73.0,30.0,-100.00,WSW,253,8.0,19.0,20,0.00,,,0.00,1210.000000,,2013-05-26 20:32:00,
2013-05-26 13:41:00,73.0,30.0,-100.00,WSW,253,8.0,19.0,20,0.00,,,0.00,1210.000000,,2013-05-26 20:41:00,
2013-05-26 14:11:00,75.0,30.0,-100.00,West,262,14.0,34.0,19,0.00,,,0.00,1200.000000,,2013-05-26 21:11:00,
2013-05-26 14:22:00,75.0,30.0,-100.00,West,262,14.0,34.0,19,0.00,,,0.00,1200.000000,,2013-05-26 21:22:00,
2013-05-26 14:33:00,75.0,30.0,-100.00,West,262,14.0,34.0,19,0.00,,,0.00,1200.000000,,2013-05-26 21:33:00,
2013-05-26 14:43:00,75.0,30.0,-100.00,West,262,14.0,34.0,19,0.00,,,0.00,1200.000000,,2013-05-26 21:43:00,
2013-05-26 15:12:00,74.0,29.0,-100.00,West,275,17.0,29.0,19,0.00,,,0.00,1213.000000,,2013-05-26 22:12:00,
2013-05-26 15:23:00,74.0,29.0,-100.00,West,275,17.0,29.0,19,0.00,,,0.00,1213.000000,,2013-05-26 22:23:00,
2013-05-26 15:33:00,74.0,29.0,-100.00,West,275,17.0,29.0,19,0.00,,,0.00,1213.000000,,2013-05-26 22:33:00,
2013-05-26 15:42:00,74.0,29.0,-100.00,West,275,17.0,29.0,19,0.00,,,0.00,1213.000000,,2013-05-26 22:42:00,
2013-05-26 16:11:00,75.0,27.0,-100.00,WNW,284,21.0,32.0,17,0.00,,,0.00,1089.000000,,2013-05-26 23:11:00,
2013-05-26 16:22:00,75.0,27.0,-100.00,WNW,284,21.0,32.0,17,0.00,,,0.00,1089.000000,,2013-05-26 23:22:00,
2013-05-26 16:32:00,75.0,27.0,-100.00,WNW,284,21.0,32.0,17,0.00,,,0.00,1089.000000,,2013-05-26 23:32:00,
2013-05-26 16:42:00,75.0,27.0,-100.00,WNW,284,21.0,32.0,17,0.00,,,0.00,1089.000000,,2013-05-26 23:42:00,
2013-05-26 17:11:00,73.0,24.0,-100.00,WNW,287,21.0,33.0,16,0.00,,,0.00,896.000000,,2013-05-27 00:11:00,
2013-05-26 17:21:00,73.0,24.0,-100.00,WNW,287,21.0,33.0,16,0.00,,,0.00,896.000000,,2013-05-27 00:21:00,
2013-05-26 17:31:00,73.0,24.0,-100.00,WNW,287,21.0,33.0,16,0.00,,,0.00,896.000000,,2013-05-27 00:31:00,
2013-05-26 17:41:00,73.0,24.0,-100.00,WNW,287,21.0,33.0,16,0.00,,,0.00,896.000000,,2013-05-27 00:41:00,
2013-05-26 18:11:00,72.0,26.0,-100.00,WNW,292,22.0,33.0,18,0.00,,,0.00,666.000000,,2013-05-27 01:11:00,
2013-05-26 18:22:00,72.0,26.0,-100.00,WNW,292,22.0,33.0,18,0.00,,,0.00,666.000000,,2013-05-27 01:22:00,
2013-05-26 18:31:00,72.0,26.0,-100.00,WNW,292,22.0,33.0,18,0.00,,,0.00,666.000000,,2013-05-27 01:31:00,
2013-05-26 18:42:00,72.0,26.0,-100.00,WNW,292,22.0,33.0,18,0.00,,,0.00,666.000000,,2013-05-27 01:42:00,
2013-05-26 19:11:00,69.0,25.0,-100.00,WNW,291,21.0,31.0,19,0.00,,,0.00,418.000000,,2013-05-27 02:11:00,
2013-05-26 19:21:00,69.0,25.0,-100.00,WNW,291,21.0,31.0,19,0.00,,,0.00,418.000000,,2013-05-27 02:21:00,
2013-05-26 19:32:00,69.0,25.0,-100.00,WNW,291,21.0,31.0,19,0.00,,,0.00,418.000000,,2013-05-27 02:32:00,
2013-05-26 19:42:00,69.0,25.0,-100.00,WNW,291,21.0,31.0,19,0.00,,,0.00,418.000000,,2013-05-27 02:42:00,
2013-05-26 20:11:00,65.0,25.0,-100.00,West,281,19.0,30.0,22,0.00,,,0.00,93.000000,,2013-05-27 03:11:00,
2013-05-26 20:21:00,65.0,25.0,-100.00,West,281,19.0,30.0,22,0.00,,,0.00,93.000000,,2013-05-27 03:21:00,
2013-05-26 20:33:00,65.0,25.0,-100.00,West,281,19.0,30.0,22,0.00,,,0.00,93.000000,,2013-05-27 03:33:00,
2013-05-26 20:42:00,65.0,25.0,-100.00,West,281,19.0,30.0,22,0.00,,,0.00,93.000000,,2013-05-27 03:42:00,
2013-05-26 21:12:00,61.0,29.0,-100.00,WNW,285,17.0,27.0,29,0.00,,,0.00,9.000000,,2013-05-27 04:12:00,
2013-05-26 21:23:00,61.0,29.0,-100.00,WNW,285,17.0,27.0,29,0.00,,,0.00,9.000000,,2013-05-27 04:23:00,
2013-05-26 21:33:00,61.0,29.0,-100.00,WNW,285,17.0,27.0,29,0.00,,,0.00,9.000000,,2013-05-27 04:33:00,
2013-05-26 21:42:00,61.0,29.0,-100.00,WNW,285,17.0,27.0,29,0.00,,,0.00,9.000000,,2013-05-27 04:42:00,
2013-05-26 22:12:00,57.0,29.0,-100.00,WNW,291,16.0,26.0,34,0.00,,,0.00,0.000000,,2013-05-27 05:12:00,
2013-05-26 22:22:00,57.0,29.0,-100.00,WNW,291,16.0,26.0,34,0.00,,,0.00,0.000000,,2013-05-27 05:22:00,
2013-05-26 22:32:00,57.0,29.0,-100.00,WNW,291,16.0,26.0,34,0.00,,,0.00,0.000000,,2013-05-27 05:32:00,
2013-05-26 22:41:00,57.0,29.0,-100.00,WNW,291,16.0,26.0,34,0.00,,,0.00,0.000000,,2013-05-27 05:41:00,
2013-05-26 23:11:00,57.0,30.0,-100.00,WNW,294,17.0,24.0,35,0.00,,,0.00,0.000000,,2013-05-27 06:11:00,
2013-05-26 23:21:00,57.0,30.0,-100.00,WNW,294,17.0,24.0,35,0.00,,,0.00,0.000000,,2013-05-27 06:21:00,
2013-05-26 23:32:00,57.0,30.0,-100.00,WNW,294,17.0,24.0,35,0.00,,,0.00,0.000000,,2013-05-27 06:32:00,
2013-05-26 23:41:00,57.0,30.0,-100.00,WNW,294,17.0,24.0,35,0.00,,,0.00,0.000000,,2013-05-27 06:41:00,